TimeCDT,TemperatureF,Dew PointF,Humidity,Sea Level PressureIn,VisibilityMPH,Wind Direction,Wind SpeedMPH,Gust SpeedMPH,PrecipitationIn,Events,Conditions,WindDirDegrees,DateUTC
2:53 AM,33.1,23.0,66,30.25,10.0,SW,6.9,-,N/A,,Clear,230,2013-03-30 07:53:00
3:53 AM,30.0,21.0,69,30.23,10.0,WSW,3.5,-,N/A,,Clear,240,2013-03-30 08:53:00
4:53 AM,30.9,21.9,69,30.22,10.0,SW,4.6,-,N/A,,Clear,220,2013-03-30 09:53:00
5:53 AM,32.0,21.0,64,30.22,10.0,SSW,5.8,-,N/A,,Clear,210,2013-03-30 10:53:00
6:53 AM,32.0,21.0,64,30.20,10.0,SSW,6.9,-,N/A,,Clear,210,2013-03-30 11:53:00
7:53 AM,37.0,23.0,57,30.18,10.0,South,6.9,-,N/A,,Clear,180,2013-03-30 12:53:00
8:53 AM,43.0,23.0,45,30.17,10.0,South,8.1,-,N/A,,Clear,180,2013-03-30 13:53:00
9:53 AM,44.1,21.9,42,30.15,10.0,South,16.1,-,N/A,,Clear,180,2013-03-30 14:53:00
10:53 AM,46.9,26.1,44,30.13,10.0,SSE,10.4,-,N/A,,Scattered Clouds,160,2013-03-30 15:53:00
11:53 AM,46.9,27.0,46,30.09,10.0,SSE,15.0,-,N/A,,Clear,160,2013-03-30 16:53:00
12:53 PM,46.9,28.0,48,30.06,10.0,South,16.1,-,N/A,,Overcast,170,2013-03-30 17:53:00
1:53 PM,48.9,30.9,50,30.02,10.0,SSE,13.8,-,N/A,,Clear,160,2013-03-30 18:53:00
2:53 PM,51.1,33.1,50,29.99,10.0,SSE,10.4,-,N/A,,Scattered Clouds,160,2013-03-30 19:53:00
3:53 PM,53.1,35.1,50,29.95,10.0,South,9.2,-,N/A,,Clear,170,2013-03-30 20:53:00
4:53 PM,52.0,35.1,53,29.94,10.0,South,6.9,-,N/A,,Overcast,170,2013-03-30 21:53:00
5:53 PM,55.9,35.1,45,29.92,10.0,SW,8.1,19.6,N/A,,Overcast,230,2013-03-30 22:53:00
6:53 PM,54.0,37.0,53,29.91,10.0,SSW,8.1,-,N/A,,Overcast,210,2013-03-30 23:53:00
7:53 PM,53.1,39.0,59,29.90,10.0,SSW,9.2,-,0.00,Rain,Light Rain,210,2013-03-31 00:53:00
8:53 PM,52.0,39.0,61,29.88,10.0,South,9.2,-,0.00,,Overcast,190,2013-03-31 01:53:00
9:53 PM,51.1,39.0,63,29.88,10.0,SSW,8.1,-,N/A,,Overcast,210,2013-03-31 02:53:00
10:53 PM,50.0,39.0,66,29.86,10.0,SSW,9.2,-,N/A,,Overcast,210,2013-03-31 03:53:00
11:53 PM,48.9,39.0,69,29.83,10.0,SW,6.9,-,0.00,,Overcast,220,2013-03-31 04:53:00